Theta_e
297 290 288 287 290 292 292 293 294 294 294 293 291 290 289 289 289 291 294 294 293 292 289 291 291 290 292 292 293 294 294 293 293 293 293 293 293 293 293 293 292 292 292 294 295 296 296 298 299 301 302 303 303 304 304 304 304 304 304 304 303 303 303 301 300 299 297 295 294 293 292 291 291 291 291 291 292 292 292 293 293 292 292 293 292 292
297 289 288 292 294 294 295 295 294 293 293 292 291 290 288 290 289 292 294 294 293 292 287 289 290 291 292 294 293 293 292 293 294 293 293 293 293 293 293 292 292 293 293 294 294 295 296 296 298 299 301 302 302 302 303 302 302 302 302 302 301 301 300 299 298 296 295 295 293 292 290 290 291 290 290 289 290 290 291 291 291 291 291 291 291 291
290 289 292 295 297 296 295 294 293 294 293 293 290 287 289 287 290 292 293 293 294 293 288 288 290 291 293 295 295 293 293 294 294 294 294 293 292 292 293 292 292 292 292 293 294 294 295 296 297 297 299 301 301 301 302 302 301 301 300 300 300 299 299 298 297 295 294 293 293 291 290 290 289 290 290 290 290 290 290 290 290 290 290 290 289 290
288 288 294 297 296 295 294 294 293 292 291 290 289 288 286 287 290 285 290 292 293 292 288 289 289 291 294 296 297 293 294 291 292 294 293 293 293 292 293 293 292 291 291 291 293 293 294 294 295 297 298 299 300 300 301 301 300 299 298 298 297 296 296 296 295 294 293 292 291 290 290 290 289 288 290 289 289 289 289 289 289 289 289 289 289 289
291 294 297 297 296 295 293 292 292 290 289 288 290 288 288 290 290 290 290 292 292 292 293 290 290 289 292 293 292 290 291 292 292 292 291 291 292 292 293 293 293 292 291 291 292 293 293 294 295 296 297 298 298 298 299 301 300 299 297 296 296 295 295 294 293 291 291 290 289 289 289 289 288 288 288 288 287 288 288 288 288 288 289 289 288 288
293 296 297 294 294 294 293 291 291 291 287 288 289 292 291 291 291 291 292 292 286 286 289 290 282 281 286 290 291 288 290 290 290 290 290 290 290 291 292 292 292 292 292 292 292 292 293 293 294 294 296 296 297 297 299 300 300 298 297 296 295 294 293 292 291 290 290 289 288 287 286 285 285 285 285 285 285 286 286 286 287 288 288 288 288 288
293 295 298 296 293 292 292 292 291 293 287 287 288 293 292 292 291 292 291 289 283 282 289 290 284 281 285 290 289 287 288 290 288 289 290 289 290 290 291 291 291 291 290 291 292 291 292 292 293 293 294 295 295 296 298 298 298 298 298 296 295 293 293 293 291 290 289 288 287 286 286 286 285 285 285 286 287 286 287 287 287 287 287 288 287 287
295 294 294 294 293 292 290 289 293 293 289 285 290 293 292 292 291 290 290 289 285 286 289 290 286 283 285 288 293 290 289 289 288 288 289 290 289 290 290 290 290 290 290 290 291 291 292 292 292 292 293 294 295 296 296 296 296 296 294 293 293 292 291 290 289 289 289 288 287 286 286 286 286 286 285 286 286 287 287 286 286 286 286 286 287 286
294 292 292 292 291 290 290 291 293 295 291 288 294 293 293 292 291 290 289 287 284 285 283 285 288 283 282 284 288 289 287 287 288 288 289 289 289 289 290 290 289 290 290 290 290 291 291 291 292 293 292 294 294 295 295 295 293 292 291 291 290 289 289 289 289 288 288 288 288 287 287 286 287 287 287 287 287 286 286 285 285 285 285 286 286 286
296 293 295 296 293 290 292 291 292 295 292 294 293 293 292 291 290 291 286 287 284 283 281 284 287 282 285 285 286 288 287 288 290 290 289 289 289 289 290 290 290 289 289 290 290 289 289 290 291 292 292 292 293 293 294 292 291 291 290 290 289 288 288 288 288 288 288 288 288 287 287 287 287 287 286 286 286 285 285 284 284 284 284 284 285 285
297 296 296 295 293 293 291 292 291 294 293 294 292 291 288 287 285 282 283 282 282 278 283 286 287 286 282 283 287 286 287 290 290 287 288 289 289 289 290 290 289 289 289 289 288 288 288 289 290 291 291 291 291 292 291 290 290 289 289 288 288 287 288 288 288 288 287 287 288 288 287 287 286 286 286 285 284 285 284 284 284 284 284 284 284 284
293 294 294 294 296 293 293 292 292 291 293 293 288 284 285 284 279 281 280 282 276 276 280 288 287 288 281 279 285 290 289 289 292 289 288 288 288 289 289 289 290 289 289 288 287 287 287 288 288 289 289 290 290 290 290 289 289 288 288 288 287 287 287 288 288 288 288 288 288 288 287 287 287 286 286 285 284 284 284 284 283 283 283 283 284 284
288 289 292 295 296 296 291 291 290 287 290 291 288 288 283 278 277 274 277 275 275 278 281 282 285 282 285 288 288 289 290 290 292 293 291 289 288 289 289 289 289 289 288 287 287 286 287 287 287 288 288 288 289 288 287 287 287 287 287 287 287 287 287 288 288 288 288 288 287 288 287 287 287 286 286 285 284 284 284 283 283 283 283 282 283 283
286 289 292 292 293 295 296 290 284 286 288 288 288 284 281 276 274 270 270 273 274 278 280 282 284 282 283 286 294 296 292 289 288 290 292 290 289 289 289 289 289 288 288 287 286 286 286 286 287 287 287 287 287 286 286 286 286 286 287 287 287 287 287 288 288 288 288 287 287 287 288 287 287 286 286 285 285 284 284 284 283 283 283 283 283 282
281 282 289 292 289 294 296 296 293 288 287 289 288 290 285 281 273 271 274 275 276 275 278 279 281 277 280 285 286 285 287 287 288 290 290 290 290 289 289 288 288 287 287 287 286 286 286 286 287 287 287 287 286 286 286 286 286 286 286 287 287 287 287 287 287 288 287 287 287 287 287 287 287 286 286 285 285 284 284 284 283 283 283 283 283 282
286 286 289 296 292 294 294 295 292 289 287 287 288 287 282 285 282 280 277 276 275 275 275 277 280 280 285 286 286 286 285 287 287 288 289 288 288 288 287 288 288 287 287 287 287 287 287 286 286 287 286 286 286 285 285 285 286 286 286 287 287 287 287 287 287 287 287 287 287 286 286 286 286 286 286 285 285 284 284 284 284 283 283 283 283 282
285 284 289 292 291 291 291 291 294 293 285 285 288 284 287 286 288 282 277 278 277 275 278 276 280 281 284 285 286 286 286 287 286 287 288 287 287 287 287 287 288 288 288 287 287 287 287 286 287 287 286 286 286 285 285 286 286 286 286 286 286 286 286 287 287 287 286 286 286 286 286 286 286 285 285 285 284 284 284 284 283 283 283 283 282 282
286 285 287 287 289 289 289 291 291 291 291 287 282 286 289 289 287 283 277 275 274 274 277 279 279 279 282 281 284 285 285 286 286 285 287 287 287 287 287 287 288 288 288 288 288 288 287 287 286 286 286 286 286 285 285 285 285 286 287 287 286 286 286 286 286 286 286 286 285 285 285 285 285 285 285 285 284 284 283 283 283 283 282 282 282 282
293 284 286 286 287 289 290 292 291 291 290 287 285 288 289 281 280 282 278 274 273 274 274 277 279 281 283 285 281 283 284 286 286 285 286 286 286 287 287 287 287 287 288 287 287 287 287 287 286 286 286 286 286 286 285 286 286 286 286 286 287 286 286 286 286 285 285 286 286 286 285 285 285 285 285 284 284 284 283 282 282 282 281 281 281 280
292 287 285 286 287 288 287 288 284 286 291 290 289 289 287 283 278 279 282 277 278 274 273 276 277 281 284 286 285 287 287 287 287 285 286 287 287 287 287 288 287 287 287 287 287 287 287 287 286 286 285 286 286 285 286 286 286 285 286 286 285 285 285 285 285 285 285 285 286 285 285 285 285 285 284 284 283 283 282 282 281 280 280 280 280 279
289 288 281 284 285 287 284 285 285 288 286 284 283 283 285 283 284 283 282 281 278 273 273 275 276 277 280 286 287 290 289 288 288 288 288 288 288 288 288 288 288 288 288 288 287 287 287 286 286 285 285 285 285 285 285 285 285 285 285 285 285 285 285 285 285 285 285 285 285 285 284 284 284 283 283 283 283 282 281 281 281 280 279 279 278 278
290 287 285 281 282 282 284 288 291 291 292 289 288 285 288 285 282 280 280 283 280 280 276 275 280 280 287 289 287 287 289 289 290 290 289 288 288 288 289 288 288 288 288 288 287 287 287 286 285 284 284 284 284 284 284 284 284 284 284 284 284 284 285 284 284 284 284 284 285 284 284 283 283 283 282 282 281 281 280 280 280 279 278 278 277 277
294 286 285 281 282 285 286 288 288 288 288 289 288 284 289 288 286 283 280 279 281 283 279 277 275 282 286 287 286 287 287 290 290 289 289 289 289 289 289 289 289 288 288 288 287 287 286 286 285 284 284 284 284 284 283 283 284 284 284 283 283 284 284 285 285 284 284 284 284 283 283 282 282 282 281 280 280 280 280 279 279 278 278 277 277 276
294 288 287 285 285 285 287 288 287 286 289 287 287 284 287 287 288 288 287 284 283 280 280 277 278 283 285 287 286 286 285 286 289 289 289 289 289 289 289 289 288 288 287 287 287 286 286 285 284 283 283 283 283 283 283 283 283 283 283 283 283 283 284 284 284 284 284 284 284 282 282 282 281 281 280 280 280 280 279 279 278 278 277 277 277 276
290 287 288 284 281 281 281 284 285 286 287 284 283 287 289 290 289 287 286 286 283 284 283 281 279 281 286 284 285 284 287 288 288 288 289 288 288 289 289 289 289 288 287 287 287 286 285 284 284 284 284 283 283 283 283 282 283 283 283 283 283 283 283 284 284 284 283 284 283 282 281 281 280 280 280 280 280 279 279 279 277 277 276 276 276 275
293 287 288 283 281 278 277 277 278 281 284 284 284 286 288 289 288 286 285 286 282 285 285 283 284 285 285 287 287 287 286 287 288 289 289 290 289 289 289 289 289 288 288 287 287 285 285 285 284 283 283 283 283 283 283 282 283 283 283 283 283 283 283 284 284 283 283 283 283 282 281 280 280 280 280 280 280 279 278 277 276 275 275 275 275 274
287 288 290 289 286 284 286 283 286 286 282 283 283 287 287 289 290 290 288 285 283 284 285 287 288 286 284 285 285 286 284 285 286 287 288 288 287 289 290 290 290 289 288 288 287 287 285 284 284 284 283 283 282 282 283 283 283 283 283 283 283 283 284 283 283 283 283 283 282 281 281 280 280 281 280 280 279 278 277 277 275 275 274 274 274 274
287 287 288 288 288 289 288 286 286 289 286 287 286 285 288 288 288 287 286 285 286 284 282 287 287 287 287 286 286 285 283 284 286 288 288 288 289 290 290 289 290 288 288 288 287 286 286 286 284 284 283 283 283 283 283 284 284 284 283 283 283 283 283 284 283 283 283 282 281 281 281 281 281 280 280 279 278 277 276 275 274 274 274 274 273 272
287 288 288 288 289 290 287 286 286 286 285 285 286 286 285 287 287 286 287 289 288 286 284 288 288 287 289 289 289 287 287 288 288 289 290 291 291 289 288 287 288 288 288 287 287 287 286 286 285 284 284 284 283 283 283 283 282 282 282 282 283 283 283 283 283 283 283 281 281 281 281 281 280 280 279 278 277 275 274 274 275 274 273 272 272 272
288 287 286 288 288 288 285 284 284 285 284 284 284 285 286 286 287 288 288 290 289 288 290 288 286 288 290 289 289 290 290 289 288 288 290 290 289 289 289 289 288 288 287 287 287 287 287 287 286 286 285 284 283 283 282 282 282 282 282 283 283 283 283 283 283 282 281 281 281 281 281 281 280 279 278 277 276 275 274 273 274 273 273 273 272 271
290 287 289 286 286 287 284 281 281 282 283 285 286 285 285 285 286 287 289 289 289 289 290 287 287 286 288 290 290 290 289 289 288 287 288 289 290 289 289 289 288 288 288 288 287 287 286 286 286 285 285 284 283 283 283 282 282 282 282 282 283 283 283 283 282 282 282 282 282 281 281 280 279 278 277 276 276 275 274 274 273 272 272 271 270 270
288 285 285 286 284 285 284 283 282 283 282 282 284 285 283 284 284 286 285 289 288 287 288 288 286 286 288 289 288 289 289 289 289 289 289 289 289 289 289 288 288 288 288 287 286 286 286 285 285 285 284 284 284 283 283 283 282 282 282 283 283 283 283 282 282 282 281 281 281 280 280 279 279 278 277 276 275 274 274 273 273 272 270 269 269 268
287 286 284 284 283 284 283 284 282 282 284 283 284 287 286 286 288 288 289 289 289 290 287 285 287 291 291 290 289 288 289 289 289 289 290 289 289 289 289 289 289 288 288 287 286 286 286 286 285 285 285 285 285 284 284 284 283 282 283 283 283 283 282 282 282 281 281 281 280 280 279 279 278 277 276 276 275 274 273 272 272 271 270 269 268 268
286 287 286 287 282 283 280 283 284 282 276 280 287 291 291 287 287 285 286 287 288 290 289 292 291 290 290 290 290 290 290 290 291 292 292 291 289 288 288 288 288 288 288 287 287 287 286 286 286 286 286 286 286 286 285 284 283 284 284 283 282 282 282 282 281 281 281 280 280 280 279 279 278 277 276 275 274 272 272 271 271 271 270 268 268 267
286 286 286 286 284 279 281 283 280 275 279 286 282 283 288 292 290 288 289 289 289 290 291 287 287 289 291 292 293 293 293 293 292 292 291 290 291 291 289 287 286 287 287 286 286 286 286 287 287 286 286 286 286 285 284 283 283 282 281 282 282 282 282 282 281 281 280 280 280 279 278 278 277 276 275 274 273 272 271 271 270 270 269 268 268 267
286 285 286 285 283 281 279 281 274 278 284 282 281 281 282 286 287 288 287 287 287 289 290 289 288 290 291 291 290 290 291 290 286 285 286 288 290 291 288 287 287 287 287 287 287 287 287 287 287 287 286 287 285 284 284 284 283 282 282 282 282 282 282 281 281 281 280 280 279 278 278 278 277 276 274 273 271 271 271 270 269 269 268 266 266 264
290 288 287 283 285 279 279 280 281 283 283 280 281 281 285 285 284 285 282 286 289 288 288 288 287 289 289 290 287 284 284 285 287 287 285 284 286 287 289 289 288 287 288 287 287 288 287 287 286 286 285 284 285 284 283 283 282 282 281 281 282 281 281 281 280 280 280 279 279 278 278 278 277 275 273 272 271 270 270 269 268 267 266 266 267 266
290 287 288 284 283 285 279 278 277 279 277 282 280 282 285 286 290 290 287 282 285 288 288 288 287 288 289 286 283 283 285 286 284 283 284 283 284 284 283 284 284 284 284 284 283 283 283 283 284 284 285 284 284 284 284 283 282 282 281 281 281 281 280 280 280 281 280 279 279 278 278 278 277 274 272 271 270 270 269 268 266 266 266 266 265 265
285 286 286 286 284 281 280 278 279 277 280 282 284 284 284 284 288 286 282 279 281 286 288 289 289 288 289 285 283 284 285 283 284 285 286 283 282 282 284 282 282 282 282 283 283 283 282 283 284 284 283 283 283 283 283 282 282 281 281 280 280 280 280 280 280 280 280 280 279 278 278 277 276 274 272 271 270 269 268 266 266 266 265 264 265 264
284 284 285 283 282 282 281 279 278 281 277 281 279 279 282 285 287 286 274 275 282 284 288 289 289 288 288 285 282 284 285 282 285 284 282 282 283 283 283 282 281 281 281 280 281 282 281 281 281 281 282 283 284 282 282 282 281 281 281 280 279 279 279 280 281 281 280 279 278 277 276 275 274 273 271 269 268 266 267 265 264 264 264 263 263 262
281 281 284 281 283 282 282 281 280 280 283 281 278 279 282 286 287 279 274 279 282 283 284 288 288 287 285 282 284 284 285 284 283 282 279 279 281 280 280 281 281 281 281 279 280 281 280 280 282 283 283 283 281 280 280 281 281 280 280 278 278 278 280 281 280 279 278 276 275 273 273 272 272 270 269 268 267 266 265 264 265 264 263 262 261 261
280 281 281 283 280 280 282 279 280 280 283 283 280 283 285 285 276 276 284 282 283 282 281 285 285 285 284 284 284 282 281 279 279 279 279 280 281 279 278 278 279 278 279 279 279 280 279 279 280 279 280 279 279 279 279 280 280 280 278 277 278 279 280 277 277 276 274 273 273 271 270 270 268 268 267 265 265 264 263 262 263 263 262 261 261 261
281 280 278 280 282 280 280 278 277 275 283 284 284 283 284 282 281 285 281 279 281 281 283 283 285 284 284 282 281 280 279 278 280 280 280 278 279 279 278 279 279 279 279 279 279 278 280 278 278 279 279 277 277 278 279 279 279 277 277 277 279 278 276 275 275 274 273 272 271 269 268 267 266 265 264 264 264 264 263 261 261 260 260 260 260 260
287 280 280 281 285 278 279 276 278 283 283 285 287 283 285 285 284 282 283 280 280 281 283 282 281 282 283 282 279 279 279 279 278 278 278 278 277 277 277 277 277 277 278 278 278 278 277 278 278 278 276 276 275 276 278 279 279 277 276 278 278 274 273 273 273 272 271 270 269 267 266 264 264 263 263 263 263 262 262 261 260 259 260 260 260 259
287 283 283 281 285 282 280 282 282 282 285 285 283 283 285 285 281 281 281 283 281 280 279 282 282 280 281 280 280 279 278 279 279 279 279 279 278 277 277 277 277 278 277 277 277 276 276 277 276 276 275 274 274 274 276 277 278 276 277 278 275 275 273 272 271 271 269 268 266 265 263 262 262 261 261 262 262 262 261 260 259 259 258 258 259 259
280 284 283 285 284 282 282 282 281 281 283 282 281 282 281 280 280 281 281 281 280 280 281 282 280 279 279 281 280 278 280 278 278 277 277 277 277 277 277 276 275 276 275 275 275 275 275 274 273 273 273 273 271 273 273 275 277 277 279 274 275 274 273 271 270 269 268 266 264 263 261 261 259 259 260 260 261 262 262 261 260 260 259 258 259 258
280 281 282 282 282 284 280 279 280 282 281 281 281 281 280 280 280 280 280 281 280 279 279 280 281 280 280 280 280 279 278 277 278 277 277 277 277 276 275 275 274 274 274 274 274 273 272 271 272 271 271 273 271 271 271 271 274 275 272 272 272 271 271 270 270 269 266 265 263 261 261 262 260 259 259 258 259 258 260 260 260 260 259 259 259 258
280 282 281 279 281 282 279 279 278 278 281 280 281 281 281 281 280 280 279 280 280 278 280 279 279 278 278 278 278 279 278 277 278 277 277 277 276 275 274 274 273 274 273 273 272 272 271 272 274 273 271 273 273 270 269 269 271 269 267 268 270 268 268 269 269 269 266 264 262 261 261 261 261 260 259 258 259 259 259 259 259 260 260 260 260 259
282 284 277 280 279 276 277 277 278 281 281 281 281 280 280 281 281 279 279 278 278 278 277 277 278 279 278 278 277 278 277 276 277 277 275 275 273 273 274 274 273 273 272 274 271 272 274 272 272 272 271 273 271 270 269 269 269 267 267 268 266 268 269 269 266 263 262 261 261 260 260 260 260 260 259 258 258 259 260 260 260 260 261 262 261 262
280 278 277 279 275 274 275 277 280 278 276 281 281 282 280 279 279 278 277 278 278 278 278 278 276 275 275 277 277 277 277 276 274 273 273 274 274 273 273 273 273 273 273 272 270 269 270 270 272 271 271 273 270 268 269 269 269 266 267 266 266 268 269 267 265 263 262 261 260 259 260 260 259 259 259 259 259 259 259 263 265 263 262 262 266 268
279 278 280 279 279 279 280 280 284 283 283 284 284 282 280 279 279 279 279 279 278 279 279 279 277 276 276 275 275 277 275 277 275 273 273 273 274 273 273 273 274 273 273 270 272 271 270 271 269 269 269 271 268 267 267 266 265 264 263 265 266 267 268 266 265 263 261 261 261 260 260 260 259 259 259 260 260 260 260 260 264 269 269 268 267 269
Wind_Speed
3 3 4 6 8 8 5 8 10 9 6 1 1 2 4 3 4 3 1 2 2 0 6 9 8 5 6 5 8 9 6 5 5 6 8 7 7 7 6 7 7 6 5 4 4 4 4 4 4 3 4 4 5 5 4 5 5 5 6 8 8 5 6 6 8 8 8 10 10 11 11 11 9 10 10 11 10 11 10 11 11 11 10 11 11 11
4 3 6 10 9 7 8 8 6 5 5 5 3 2 5 1 5 3 2 1 2 3 3 2 4 6 8 6 6 7 5 10 11 8 8 9 8 7 8 8 7 6 4 5 4 4 4 4 4 3 4 4 6 4 4 5 6 6 6 9 8 7 7 7 7 8 7 6 7 11 9 10 8 9 10 11 9 10 9 11 11 10 10 11 10 10
3 8 9 12 8 4 5 4 5 9 7 1 3 2 0 4 3 6 2 1 0 1 7 5 6 8 9 9 6 7 12 8 7 8 10 11 8 7 7 8 8 7 6 5 4 4 4 4 4 4 5 4 5 5 5 5 7 7 7 7 8 7 8 8 9 9 10 9 8 12 9 12 11 9 9 10 9 9 11 11 10 10 10 10 10 10
4 5 13 11 5 5 5 3 3 3 2 3 1 1 5 3 1 6 2 1 1 2 2 1 5 8 8 9 14 4 8 2 2 6 7 9 11 10 11 10 10 8 8 8 7 6 5 5 5 5 6 5 4 5 6 6 7 6 6 7 9 8 8 8 8 11 12 13 13 13 12 11 12 10 9 11 9 10 12 12 10 10 10 10 10 10
11 5 4 6 7 6 6 4 4 3 5 2 4 3 2 2 4 7 4 0 1 3 1 4 7 8 8 11 7 2 1 5 2 5 4 2 3 5 5 6 9 11 9 8 7 5 5 6 6 6 6 5 5 4 5 5 5 6 7 8 9 9 9 10 10 13 14 14 14 13 12 11 12 9 8 10 10 9 9 10 10 9 9 10 10 11
10 8 0 5 5 6 5 4 6 6 5 3 4 8 7 5 6 5 2 3 5 3 2 1 6 4 4 5 8 1 0 3 2 5 5 4 5 7 8 8 5 7 7 10 9 8 6 6 6 6 6 6 5 5 5 5 7 8 9 10 10 9 9 11 10 10 10 11 12 11 11 11 10 10 8 10 9 8 9 10 7 9 10 10 11 10
7 4 6 5 4 5 7 6 5 7 7 2 5 4 6 7 4 1 2 3 3 4 3 2 1 10 3 6 4 3 5 8 2 5 5 4 5 5 7 7 8 9 7 5 5 5 7 6 7 7 7 6 7 5 5 6 7 9 9 9 10 10 9 7 6 5 9 9 8 8 9 10 11 13 8 7 7 9 8 8 10 9 8 8 9 8
2 6 8 6 6 7 6 6 4 9 6 4 2 1 4 4 4 3 2 3 5 1 3 2 3 6 14 5 8 7 8 8 6 8 7 7 6 6 6 6 7 8 8 8 7 7 6 6 7 8 7 6 6 6 6 7 7 9 8 8 7 6 6 5 6 6 8 11 9 11 11 10 10 12 12 9 9 8 8 10 9 7 7 7 7 8
3 4 6 5 6 6 8 5 4 7 6 3 1 5 3 4 3 3 2 0 1 2 8 3 1 3 7 5 3 5 4 7 14 12 12 8 8 8 7 7 7 8 8 9 9 8 7 7 7 8 7 6 6 6 7 7 7 7 7 7 7 8 8 7 9 8 8 9 10 11 12 13 10 11 10 9 8 9 8 10 7 8 7 7 7 7
1 5 7 9 7 7 3 1 1 7 3 1 2 6 5 5 3 2 1 1 2 1 7 6 6 5 14 3 2 0 2 8 13 13 10 9 11 10 9 8 7 6 6 6 7 6 6 6 6 6 7 6 5 6 6 7 7 7 7 9 9 9 8 8 10 9 8 9 10 11 11 16 11 10 9 8 9 8 7 10 8 7 7 6 7 7
1 2 3 3 4 4 5 1 2 1 3 5 6 7 5 7 4 3 4 3 2 6 8 9 10 9 9 2 7 8 8 7 2 1 4 6 8 8 8 10 9 8 7 7 7 6 6 6 7 7 8 6 5 6 7 7 7 6 8 9 10 8 8 9 11 10 9 7 8 11 11 13 15 12 12 11 9 8 7 9 7 7 7 6 6 6
0 1 1 0 4 4 4 4 5 2 3 7 3 4 5 3 5 3 3 3 1 8 4 13 12 12 10 5 5 7 3 3 7 7 10 11 12 11 9 10 10 9 8 8 8 8 9 8 7 7 8 7 7 7 8 7 7 7 7 9 10 8 9 9 10 10 8 8 8 8 10 12 12 12 11 11 11 9 9 9 9 6 6 6 6 5
3 3 1 2 2 10 3 6 3 5 2 6 8 7 4 3 4 2 2 2 7 8 1 1 4 1 17 8 4 3 8 5 6 8 12 13 11 11 10 11 10 9 8 10 9 9 8 9 10 9 8 8 8 8 7 8 7 7 8 10 12 9 8 10 10 9 8 8 9 10 10 10 10 10 10 11 11 8 9 8 8 7 7 6 6 5
6 1 3 2 2 4 9 9 2 1 2 7 8 7 6 1 2 4 5 3 5 5 4 0 3 7 2 6 12 20 8 3 6 4 8 14 15 14 12 10 10 9 9 9 9 8 8 9 9 8 9 8 8 8 9 8 8 7 8 9 12 9 8 9 9 9 10 8 8 7 8 9 10 10 10 9 10 8 7 7 8 7 7 6 6 6
3 4 7 9 5 5 10 12 12 7 9 8 4 11 9 7 5 4 5 5 7 5 2 3 4 7 4 4 2 2 3 5 4 3 5 6 9 10 10 9 10 10 8 9 9 9 9 9 9 9 9 8 8 8 9 7 8 8 8 10 12 11 9 10 10 9 10 9 8 7 8 9 8 10 9 8 8 8 9 7 8 6 6 7 6 6
12 6 5 6 1 7 11 3 7 6 3 2 3 5 5 9 6 6 3 2 1 1 2 2 6 4 5 1 2 2 3 5 3 5 8 8 8 10 9 11 10 9 9 9 9 9 8 8 8 8 7 8 8 8 7 8 8 9 9 9 10 11 10 10 10 9 10 9 8 8 9 9 9 9 9 8 7 7 7 7 8 7 6 6 6 5
2 6 1 2 5 5 4 0 3 6 7 4 5 7 9 3 4 2 2 0 1 2 10 3 6 6 6 3 0 2 2 2 3 4 6 8 9 10 10 9 9 8 8 9 9 9 9 8 7 8 8 8 8 8 8 9 8 10 10 10 10 8 7 9 9 9 9 9 10 9 9 9 10 10 11 10 9 9 7 7 7 7 6 6 6 6
9 4 2 3 4 1 1 0 2 3 5 7 4 8 1 2 3 3 4 2 1 5 6 5 7 4 2 10 1 1 2 2 3 4 5 6 8 11 10 10 11 10 9 9 8 8 8 9 9 7 6 6 7 8 8 8 6 7 8 10 11 10 11 8 8 9 9 10 10 9 9 8 9 10 9 10 10 8 8 6 6 6 7 6 5 5
4 2 3 1 0 3 2 2 2 2 2 7 6 2 8 3 2 2 3 3 1 5 5 4 6 7 10 8 2 4 7 9 8 6 6 9 11 11 9 9 8 8 8 9 10 9 9 10 9 9 8 6 6 6 7 7 7 7 6 7 9 11 9 9 7 7 7 7 8 8 9 10 9 8 9 8 8 7 8 8 6 6 6 6 5 6
1 6 1 1 2 0 1 3 8 4 1 1 2 1 1 3 2 5 7 4 5 5 1 7 4 10 7 6 13 11 15 14 10 8 13 14 13 12 11 11 12 12 11 10 10 10 9 9 9 10 10 10 9 9 8 8 7 8 8 9 8 7 7 7 8 8 9 7 8 8 7 6 7 8 9 8 9 8 7 7 7 7 6 6 5 5
3 1 4 1 3 2 3 4 8 12 10 1 2 2 0 0 2 4 2 4 5 3 4 4 9 5 6 3 9 12 14 14 16 17 13 12 12 11 11 12 12 12 11 11 11 11 11 10 9 9 8 8 7 6 7 8 9 9 8 8 8 11 10 9 8 8 8 8 8 10 10 9 8 8 7 7 7 8 7 6 6 6 6 5 6 5
2 2 8 3 0 5 7 5 7 10 12 12 14 12 14 8 3 3 9 1 2 1 5 2 15 2 2 2 3 6 5 8 14 15 13 12 12 13 12 11 11 11 10 10 9 9 10 9 9 8 7 6 8 8 9 8 8 8 8 9 9 9 10 10 9 9 9 8 9 9 9 8 6 7 7 8 7 7 7 6 6 6 5 6 5 5
6 3 7 5 7 9 5 2 1 1 2 1 2 3 6 6 6 5 9 4 0 6 2 2 4 10 3 1 2 3 4 9 12 9 10 10 12 12 11 11 10 10 11 11 10 10 9 9 10 10 11 11 10 9 9 8 9 9 9 9 8 11 10 10 10 9 9 9 9 8 7 8 7 7 8 8 7 7 6 6 5 5 6 6 5 4
7 3 3 1 1 2 1 1 3 3 2 2 1 2 6 11 10 10 7 5 6 1 2 2 6 6 1 0 2 3 4 4 8 10 11 9 9 10 11 11 11 10 8 8 8 8 9 9 8 9 10 11 10 10 10 9 8 9 9 9 9 11 11 9 9 9 9 9 9 8 8 8 7 8 8 8 7 8 6 6 5 5 6 5 5 6
4 4 6 2 1 1 2 2 2 3 1 5 5 6 7 5 5 2 3 1 1 9 7 7 16 2 1 2 2 3 1 6 9 7 9 10 8 10 11 10 10 10 10 11 11 11 10 10 12 12 11 11 10 9 9 10 10 9 10 9 11 10 10 10 9 9 9 10 11 9 9 9 8 9 9 8 7 8 7 7 6 5 6 6 6 4
6 5 9 8 12 11 9 7 6 7 10 3 1 1 8 13 11 5 8 5 9 2 12 7 13 4 2 1 1 1 1 2 3 6 5 8 12 12 9 11 11 11 13 13 11 11 14 14 10 8 9 10 10 11 10 10 10 10 10 11 9 11 10 10 9 10 10 10 11 10 10 10 9 10 10 9 8 9 7 7 6 6 5 6 6 5
3 2 9 13 12 14 12 2 2 6 5 7 7 14 13 11 13 10 6 6 14 3 10 15 12 8 3 3 4 5 4 5 7 7 10 8 6 6 9 11 13 13 14 16 15 12 8 8 13 12 10 10 10 10 11 12 12 11 11 10 9 9 11 11 11 10 11 11 11 11 11 11 11 10 10 9 9 7 7 7 6 6 6 5 6 6
2 4 11 8 13 16 3 2 4 12 11 11 11 12 14 14 13 14 14 16 6 4 16 6 4 12 11 6 8 6 5 4 4 5 6 7 8 10 10 8 8 7 7 8 9 12 16 14 10 11 12 11 12 11 11 11 12 13 12 13 10 10 10 10 11 12 12 11 10 10 11 11 10 10 9 8 8 8 7 6 6 5 5 6 6 5
6 9 7 6 13 10 3 3 4 3 5 5 12 14 15 16 14 18 20 17 10 12 17 9 9 12 11 11 12 11 12 14 14 11 7 8 8 7 8 9 11 12 11 13 14 13 12 13 14 13 13 13 12 13 13 11 10 9 8 8 10 10 12 11 12 13 12 11 11 11 11 10 8 8 9 9 8 8 7 7 7 6 6 5 5 5
3 6 3 7 12 9 5 5 2 5 2 1 5 9 13 14 19 20 20 17 14 13 16 6 5 12 7 5 8 13 12 7 4 4 6 9 10 11 12 12 12 12 13 15 15 15 14 14 14 15 15 13 16 15 13 12 12 12 12 12 11 11 10 11 12 13 12 12 12 11 10 10 9 9 9 9 9 8 8 7 7 7 6 6 5 5
4 4 7 3 4 10 6 3 2 4 4 8 10 10 13 11 11 14 15 13 13 15 16 3 8 9 3 2 4 3 5 6 5 5 7 8 10 11 13 12 11 12 13 13 12 12 13 13 12 11 13 15 15 16 15 13 12 9 9 9 10 11 11 11 12 12 13 13 11 11 10 10 10 10 10 10 9 8 9 8 7 7 7 6 5 5
3 4 2 3 7 11 5 8 4 3 1 8 16 18 6 7 7 12 14 15 13 19 16 13 16 11 3 1 4 7 8 10 11 9 7 6 8 9 10 11 12 13 13 12 11 9 9 10 11 13 15 15 14 13 12 12 12 11 13 12 12 12 11 11 12 13 12 11 11 11 11 11 11 11 10 9 9 8 7 7 7 7 6 6 6 5
7 5 5 5 8 11 1 7 5 3 3 9 26 19 14 16 14 12 14 14 17 16 12 13 17 12 9 6 7 4 7 8 9 9 8 6 8 11 12 13 14 12 11 10 10 11 12 13 13 13 13 12 13 14 15 14 12 14 14 13 13 10 11 13 12 12 11 11 11 11 11 11 11 10 9 9 9 8 8 8 8 7 7 7 5 5
4 7 6 5 6 3 4 6 6 5 7 19 2 6 20 20 20 15 14 14 13 14 16 13 8 7 11 9 12 12 12 11 11 10 11 13 10 10 10 8 9 9 8 9 10 11 10 9 9 11 14 15 15 16 14 13 15 15 13 11 9 11 12 12 10 11 11 11 11 11 11 11 11 10 10 8 8 8 9 9 9 7 6 6 5 5
10 7 7 4 3 4 4 8 4 11 19 2 3 3 7 17 17 20 19 15 15 15 13 2 8 12 13 13 13 13 10 8 8 10 8 10 11 9 8 6 5 8 10 9 8 8 9 11 11 10 9 9 11 10 9 10 10 7 7 9 11 11 12 11 11 11 11 12 12 11 10 11 11 11 9 9 9 9 9 9 7 8 7 7 7 7
9 10 4 3 3 4 2 8 5 11 2 2 3 1 1 4 6 11 14 10 9 15 17 15 11 12 10 7 5 5 5 2 2 2 3 3 5 6 6 8 9 9 9 9 10 10 9 9 11 11 12 9 7 8 10 12 10 9 10 10 12 12 12 12 12 12 12 12 11 12 12 11 11 10 9 10 9 9 10 9 9 10 7 6 5 4
13 8 7 6 5 6 6 10 13 5 7 1 1 2 6 7 7 11 11 16 17 14 13 12 8 7 6 6 4 2 3 4 3 4 1 0 2 5 10 10 9 10 8 7 8 9 8 8 8 8 5 6 8 9 10 8 9 10 9 10 11 12 12 12 13 13 14 12 11 12 12 12 12 11 11 11 11 11 11 11 9 7 6 7 6 7
6 13 9 9 6 8 5 5 3 5 14 12 5 4 5 2 10 12 8 7 1 8 9 10 11 11 9 4 5 5 5 5 6 7 4 4 2 5 1 4 3 4 4 3 1 1 3 4 4 4 7 7 7 9 7 8 10 10 11 11 11 11 11 12 15 14 12 12 12 14 14 12 12 12 11 11 13 12 10 7 5 7 8 9 9 8
3 1 4 14 5 6 7 10 9 11 10 3 8 8 4 3 7 6 3 8 5 8 11 13 13 10 11 10 7 8 8 7 10 6 7 5 4 2 6 4 4 4 5 6 7 5 4 5 5 5 4 5 6 6 7 9 11 10 11 10 10 11 12 14 14 12 13 14 12 10 9 9 10 12 12 13 12 11 11 10 10 7 6 6 6 6
5 5 6 8 9 11 12 9 12 6 3 2 5 2 5 7 7 8 2 7 4 8 9 12 12 11 9 8 11 10 11 10 10 7 3 6 6 6 7 7 4 4 3 1 1 3 5 5 5 4 5 6 7 5 7 7 9 9 10 9 8 10 13 14 15 14 12 9 9 9 10 10 11 11 12 12 9 8 8 6 7 8 8 5 6 6
6 4 9 16 14 10 11 10 1 5 2 3 4 3 5 4 6 8 10 4 2 4 4 7 8 7 9 10 10 10 7 3 4 5 6 5 7 3 2 2 4 5 6 4 4 3 5 4 5 7 7 6 4 5 6 7 8 8 8 8 9 12 15 14 9 7 7 7 8 8 10 8 10 12 9 8 9 8 6 7 8 8 7 7 6 5
3 4 1 4 8 12 11 9 9 1 4 7 0 9 6 7 4 8 5 0 3 3 1 5 6 7 10 13 9 3 4 4 7 6 6 5 6 4 4 4 4 2 1 2 4 4 4 4 3 2 1 2 5 6 6 7 8 8 6 8 10 15 11 5 6 7 7 8 9 9 9 9 7 7 9 8 9 9 8 5 6 7 7 6 7 7
14 11 12 13 5 2 2 6 2 9 3 9 9 3 3 5 5 4 3 2 1 3 6 3 6 6 9 5 4 8 7 5 7 7 5 5 6 7 7 6 6 6 6 4 3 2 5 4 4 5 5 4 4 5 6 7 7 6 6 9 15 8 5 6 6 7 8 8 9 9 9 8 9 9 8 9 9 10 9 7 7 6 7 7 7 7
6 7 5 7 7 9 9 10 8 2 9 10 17 12 8 5 3 7 8 2 0 3 5 6 1 6 7 11 10 8 8 8 4 4 4 3 3 4 3 3 2 3 2 1 2 4 4 4 4 4 4 4 4 5 5 9 8 6 8 14 6 5 5 6 7 7 8 8 8 8 8 8 8 8 7 9 9 8 9 9 7 7 7 7 8 7
11 9 3 10 6 8 6 2 0 2 11 8 1 2 3 4 3 6 4 7 8 4 3 6 7 5 7 12 10 11 6 6 8 7 8 6 5 5 5 5 6 6 5 5 4 4 4 5 4 2 3 3 4 4 6 6 9 8 10 9 6 7 8 7 8 8 8 9 8 8 7 7 7 8 8 8 10 10 9 8 8 8 5 7 6 6
4 3 1 6 2 3 3 1 1 2 5 4 1 1 3 4 2 5 6 7 3 5 7 8 7 9 8 10 12 4 8 8 7 5 4 5 4 4 2 2 3 1 2 3 2 4 4 2 1 2 4 4 3 4 5 5 7 11 11 4 7 7 8 9 9 9 9 8 8 8 8 9 6 6 7 8 7 8 9 11 10 9 8 7 7 7
1 1 2 4 1 6 5 4 4 8 6 4 2 2 2 2 4 4 4 5 6 6 5 5 11 10 11 9 10 10 7 7 7 6 5 5 5 5 5 5 4 4 5 5 5 5 3 4 3 4 5 6 5 5 5 5 6 4 1 5 4 5 6 9 10 9 8 9 8 7 8 10 9 8 6 6 5 5 6 6 7 8 8 8 8 7
2 3 4 1 3 6 1 4 3 1 1 1 2 5 5 3 3 3 2 5 7 5 7 7 8 8 7 7 8 10 8 6 8 7 6 6 6 5 5 4 3 1 3 2 3 5 4 5 6 6 5 7 6 4 4 5 6 4 1 3 5 6 7 7 8 10 10 10 9 8 9 9 9 10 8 7 7 8 7 6 6 8 10 11 10 9
4 8 5 5 5 0 2 1 0 5 1 1 2 3 2 4 7 4 6 8 7 10 7 5 4 9 7 8 7 10 8 7 7 9 7 5 4 4 4 4 4 4 3 3 4 5 7 6 6 7 6 8 5 5 6 7 7 5 5 4 5 7 8 8 6 5 5 5 6 7 6 7 7 8 8 7 6 6 6 8 9 9 6 5 5 7
7 8 3 6 4 4 8 8 9 9 4 6 8 8 5 4 5 8 6 7 8 10 9 9 4 3 5 8 9 9 9 6 4 5 5 4 4 4 3 3 2 2 3 3 3 5 5 6 6 6 6 7 4 5 6 6 6 5 5 5 6 7 9 8 7 6 7 7 7 6 6 6 6 6 7 7 7 7 5 6 10 7 6 6 9 13
8 8 8 8 10 11 6 10 11 4 7 10 12 7 6 6 8 10 10 10 7 9 10 11 8 5 5 2 2 8 6 7 5 4 4 3 3 4 3 3 2 1 3 2 1 2 4 5 4 3 4 6 3 5 5 5 4 4 4 5 6 7 7 8 8 7 7 7 8 8 8 7 7 7 7 7 7 7 7 5 7 14 15 11 10 12
Wind_Direction
127 116 161 194 218 209 211 197 201 215 198 184 127 131 207 209 278 283 245 248 126 14 237 230 241 253 265 232 218 215 209 215 207 183 185 179 169 166 161 147 141 139 147 161 124 120 120 112 113 116 96 92 82 81 79 85 90 91 101 99 90 86 91 101 105 97 101 102 97 84 82 86 81 78 76 69 62 63 61 59 59 58 57 56 57 53
76 167 235 223 219 191 208 217 227 245 242 235 244 210 276 189 265 245 275 217 322 180 291 276 283 274 264 272 228 218 188 216 205 195 192 186 178 169 158 147 146 146 132 125 104 109 113 112 106 108 106 105 101 87 77 74 78 80 82 94 95 87 84 85 91 99 87 77 97 105 96 95 83 80 76 76 65 67 65 62 59 60 58 59 58 56
185 202 230 226 225 206 240 223 198 208 229 235 206 207 130 282 237 286 340 151 274 109 263 286 276 268 275 270 268 190 204 218 208 188 193 171 171 168 163 149 143 144 150 144 153 146 140 131 115 109 111 102 97 104 93 87 94 85 82 88 93 88 94 94 99 102 101 98 94 100 100 100 93 75 81 84 82 75 73 65 63 61 61 60 59 56
255 282 240 231 211 213 266 214 130 82 85 160 146 161 228 233 351 290 304 347 281 161 250 276 284 272 271 263 254 250 197 176 160 176 182 179 170 174 176 161 152 156 157 158 162 158 149 140 126 113 110 110 103 103 103 96 95 97 97 96 97 93 94 98 98 100 96 97 97 90 99 89 93 102 91 85 77 74 71 64 62 59 62 62 63 59
200 207 213 192 202 199 220 220 165 167 245 283 183 186 205 241 227 198 260 260 295 314 351 313 297 289 245 258 272 352 12 126 122 98 91 66 140 149 132 140 158 159 158 159 162 162 152 140 135 130 122 116 108 103 108 108 106 106 102 101 102 102 103 105 111 112 112 108 100 101 96 96 93 80 83 83 69 67 72 75 60 60 64 67 66 61
246 242 81 137 198 208 205 216 208 161 226 289 235 195 210 207 234 255 310 13 11 331 309 105 334 299 272 244 253 168 71 198 225 148 162 146 135 143 152 160 159 152 159 162 166 164 156 144 131 120 119 116 106 95 92 102 113 113 108 107 107 109 112 114 116 115 115 116 120 122 117 108 99 89 78 79 94 85 75 76 82 67 59 63 64 60
219 187 203 209 172 202 201 207 227 161 195 167 268 190 205 211 212 218 297 64 313 256 307 77 206 283 284 276 247 184 197 218 236 208 197 172 165 158 156 160 159 156 157 150 147 148 144 148 130 126 126 123 110 106 108 109 111 109 110 112 117 120 119 115 112 114 115 106 104 107 105 108 111 107 91 99 92 92 88 85 74 70 62 61 71 66
122 186 187 194 183 184 188 206 231 157 144 229 245 130 131 144 187 198 128 162 237 228 300 37 118 272 290 234 247 191 198 220 235 233 219 199 181 176 166 161 156 156 156 153 156 155 150 148 141 136 133 123 123 120 113 111 107 109 112 116 120 114 110 110 110 103 111 114 115 111 106 104 103 104 114 106 97 90 92 86 82 80 73 65 67 74
160 170 153 167 180 175 197 201 205 153 147 215 246 155 98 132 150 122 117 135 219 14 290 239 85 298 254 275 0 131 191 244 239 222 217 199 186 184 176 172 158 155 157 152 153 158 157 149 138 135 126 122 119 120 119 117 110 107 107 108 108 106 108 112 109 106 104 112 118 116 116 106 102 107 109 107 101 100 99 94 88 84 79 75 68 69
316 168 201 164 165 206 209 327 358 163 163 231 142 83 82 68 61 72 96 78 332 331 249 190 179 209 275 203 125 321 253 254 240 224 207 193 188 185 177 173 162 152 148 146 147 147 144 138 129 126 120 112 117 118 112 111 110 111 111 108 107 107 109 117 112 109 110 116 120 117 119 118 118 116 111 109 110 106 106 98 95 91 85 81 75 67
229 323 174 108 191 176 131 63 73 340 170 129 73 62 23 36 32 11 70 93 34 254 238 185 198 169 280 246 195 160 217 212 279 94 181 183 184 182 174 168 166 158 151 146 138 138 136 133 128 131 126 127 118 114 115 113 116 119 114 114 108 113 115 118 118 119 120 119 120 121 125 123 125 124 122 121 113 115 108 104 102 98 95 87 83 80
15 345 124 265 101 104 101 76 356 48 102 115 99 119 59 349 11 31 350 48 143 264 218 195 194 182 217 284 273 243 267 219 188 204 180 186 184 179 170 169 164 159 154 146 140 143 139 132 130 132 133 136 132 122 121 123 123 122 121 118 114 115 121 121 122 122 124 123 121 121 126 124 126 129 129 126 126 127 119 117 112 111 101 89 85 78
281 199 238 89 233 134 105 94 342 15 6 90 95 79 133 249 36 329 39 265 203 234 247 248 166 7 240 229 261 280 263 273 221 191 182 181 177 171 167 163 160 156 151 153 151 150 151 150 152 148 148 141 141 141 138 137 132 129 127 126 123 126 129 127 127 128 128 126 130 132 129 127 127 126 126 125 123 131 123 124 118 117 105 103 90 81
269 289 171 195 357 231 146 156 165 190 237 128 139 146 116 217 206 262 249 237 300 291 259 41 159 239 292 277 238 254 235 254 280 235 174 170 173 169 163 158 156 157 160 159 156 158 157 157 158 156 153 150 148 149 146 143 138 137 133 132 128 136 133 129 127 130 126 126 130 130 130 128 128 127 127 127 126 129 123 124 120 118 120 115 111 105
233 318 241 151 240 183 182 194 185 159 157 200 117 150 186 146 153 227 189 206 219 222 290 271 121 234 131 243 312 285 297 297 292 174 155 148 150 151 152 152 151 156 164 161 162 164 162 164 161 160 158 154 155 152 147 145 141 137 137 137 134 135 136 133 134 131 128 129 126 123 125 124 126 127 124 124 126 128 125 123 122 122 124 116 115 106
212 228 272 188 323 159 190 189 110 99 83 221 169 64 93 220 142 220 193 176 255 323 325 195 204 191 185 251 291 332 346 14 31 100 120 129 132 139 150 163 168 166 164 164 163 163 162 160 157 154 155 156 155 153 149 146 146 143 143 140 138 139 141 137 134 134 132 129 124 127 126 127 125 123 121 119 118 119 125 132 128 127 123 117 114 104
74 251 321 26 29 168 187 41 167 151 197 212 111 198 209 179 153 266 357 314 105 34 252 159 288 295 301 320 333 357 43 14 50 108 128 141 150 152 163 169 171 169 163 169 168 164 157 153 156 156 156 157 154 154 155 154 154 149 145 142 137 136 136 137 136 134 131 128 127 127 126 129 129 131 133 133 133 130 128 127 126 123 124 114 108 108
158 233 328 79 206 307 206 179 88 26 147 98 182 232 83 65 114 140 226 334 68 214 272 147 216 274 144 266 21 58 159 236 191 165 156 150 157 169 174 173 173 173 169 167 161 158 156 155 152 153 157 159 156 152 147 147 146 143 143 144 139 142 141 141 136 134 134 132 129 131 131 132 134 133 132 133 133 132 126 123 119 117 112 116 117 112
119 299 225 312 184 282 345 108 43 340 58 154 189 207 133 236 244 274 92 263 211 249 276 262 218 244 185 233 94 233 206 210 204 186 163 175 181 183 175 172 167 160 158 165 164 161 161 160 158 156 154 151 144 140 138 137 138 140 141 144 144 144 144 140 135 128 124 130 133 137 138 138 136 135 132 130 127 128 128 127 125 120 124 117 116 114
98 199 289 323 116 257 38 116 190 194 327 47 71 140 173 106 161 142 200 180 122 251 14 288 114 252 185 215 183 203 205 199 177 184 200 190 185 179 177 176 173 172 171 167 165 167 163 158 155 156 156 157 155 150 149 145 144 147 147 143 139 131 132 130 131 134 134 136 134 133 130 131 136 137 135 136 134 132 131 132 128 131 125 130 124 120
234 126 250 226 302 94 186 178 198 174 179 202 88 220 325 287 228 120 283 160 173 191 210 284 291 267 255 206 182 205 201 191 180 193 196 188 187 184 182 179 176 172 170 172 169 166 161 156 155 154 155 151 143 143 145 152 154 153 148 146 148 145 143 140 141 136 138 136 140 141 144 143 141 136 131 129 129 128 130 131 130 132 138 125 126 129
178 188 201 122 179 220 247 234 215 200 192 183 174 192 181 148 154 179 257 115 159 175 243 168 261 259 265 163 211 249 247 197 203 188 185 185 181 183 182 180 175 172 173 170 167 160 158 152 151 150 148 145 145 153 156 156 151 154 155 154 151 147 149 146 146 146 146 146 148 147 145 142 138 134 132 129 129 129 134 138 137 142 131 127 136 127
171 137 103 193 204 205 218 285 355 123 80 108 173 236 188 199 164 180 231 235 333 241 123 172 313 265 227 202 235 243 249 207 197 182 185 181 183 182 180 177 175 174 168 168 164 161 159 160 160 161 161 162 162 161 159 161 162 162 160 158 159 153 158 155 153 151 149 149 149 148 144 139 139 136 133 131 133 136 139 142 142 140 133 135 131 123
93 117 166 298 30 345 350 344 15 29 69 350 314 169 154 205 190 205 210 178 193 219 171 282 244 274 291 304 292 287 279 227 170 180 180 175 174 174 169 168 169 163 162 156 154 156 159 160 157 156 165 165 166 170 170 166 164 165 166 164 159 161 160 156 153 150 150 151 148 145 143 143 142 137 139 139 145 145 147 144 145 144 136 139 132 127
138 246 139 143 308 345 349 349 6 344 78 208 201 203 208 213 216 222 75 160 279 214 158 151 249 223 271 345 323 349 2 154 175 183 167 164 170 172 171 170 167 162 158 161 163 164 161 163 172 177 172 172 169 168 169 170 173 170 171 170 171 169 164 155 154 152 154 153 150 152 149 149 150 149 151 152 154 152 149 147 144 141 141 136 135 137
169 154 149 193 215 227 229 193 199 212 215 211 234 131 207 203 196 170 234 198 235 193 148 220 249 237 290 346 332 289 324 148 193 174 179 171 169 169 166 162 162 165 171 169 164 162 177 181 172 168 176 175 175 174 173 173 176 178 177 182 175 164 162 161 154 156 156 159 157 159 158 157 157 160 160 158 157 157 157 151 145 140 137 138 137 134
151 197 190 202 211 229 235 168 205 111 88 182 208 194 214 207 206 203 229 220 218 122 196 226 231 268 276 251 243 236 212 187 174 179 182 179 175 164 163 166 169 174 173 174 177 176 156 164 185 182 177 176 175 178 180 180 182 181 181 180 178 170 164 163 159 158 162 166 166 164 166 166 168 165 164 163 161 158 157 155 149 139 139 136 137 139
93 185 226 215 224 234 222 184 190 167 178 203 193 213 206 201 198 197 206 228 124 133 252 219 155 245 237 222 226 214 222 236 233 188 179 170 169 166 171 166 157 155 163 162 164 173 185 185 174 176 180 179 183 185 187 188 187 185 183 181 176 170 167 166 162 164 168 170 172 172 172 173 169 167 165 161 158 159 156 147 141 137 134 129 134 140
156 209 211 168 241 246 254 157 138 171 208 195 206 204 200 203 195 202 220 222 144 206 236 242 198 234 244 210 214 198 191 198 196 190 173 164 152 137 133 152 168 172 170 177 185 185 181 180 183 181 182 187 182 188 191 189 191 188 186 181 180 174 174 166 164 170 173 175 176 179 174 170 168 165 161 160 156 153 153 151 145 141 134 130 135 136
99 236 163 183 234 240 219 152 129 174 193 220 220 218 214 202 204 205 220 218 203 224 235 237 196 226 231 236 207 205 202 186 138 126 132 146 159 158 161 167 173 174 180 186 189 189 188 185 182 188 186 186 190 191 190 191 192 192 187 186 182 177 171 165 174 172 176 180 182 177 175 171 167 165 162 160 162 161 156 150 146 142 138 138 139 137
138 250 118 133 237 248 214 127 120 161 183 237 237 225 217 211 215 218 226 228 224 243 241 232 266 255 257 237 198 119 104 111 126 150 176 171 162 165 167 172 173 181 191 194 191 189 189 189 189 185 188 193 194 195 193 194 192 185 186 187 183 180 176 174 175 180 180 183 181 178 173 170 171 165 167 167 160 158 157 152 149 147 141 141 144 145
140 246 45 133 210 252 184 178 163 136 147 247 257 236 181 138 173 216 219 219 202 224 229 231 246 243 254 55 85 125 140 154 170 177 174 180 177 165 169 175 182 188 193 193 191 188 188 191 189 189 195 197 197 194 193 192 189 183 192 189 185 185 176 180 182 182 184 184 179 179 176 175 169 169 169 164 167 162 158 150 149 151 150 150 151 158
187 143 167 171 209 239 219 155 164 119 289 298 252 237 183 206 215 217 225 217 212 213 219 221 231 222 169 172 118 142 152 167 169 175 176 178 184 181 181 185 192 192 188 185 187 195 197 194 193 193 197 197 196 196 201 193 183 193 194 189 189 171 178 186 185 184 185 184 183 183 179 174 172 171 169 172 164 159 152 155 157 157 159 166 162 153
144 177 208 164 208 223 116 135 119 173 216 236 336 161 177 200 203 211 221 212 216 195 220 220 219 142 151 166 154 176 172 182 177 187 175 171 183 205 210 191 183 180 187 196 196 194 197 193 198 200 199 199 200 200 198 187 192 199 191 183 171 177 185 185 187 185 187 186 189 185 180 175 172 173 173 164 159 157 159 164 173 167 161 149 152 164
177 183 208 152 197 199 152 118 172 214 232 337 284 312 202 193 193 209 225 211 210 215 226 172 154 172 178 178 176 177 181 189 192 192 199 187 178 189 194 173 171 184 194 193 193 199 197 197 201 203 203 207 202 197 183 195 200 181 167 171 176 183 183 188 186 189 190 191 191 183 179 177 176 174 169 165 161 162 167 171 164 162 164 167 169 173
179 185 157 201 138 69 132 183 208 231 295 316 321 313 61 134 195 202 239 240 220 207 204 212 190 189 184 187 197 177 179 194 25 331 298 262 211 183 151 175 193 186 190 194 192 200 197 199 200 198 206 200 181 185 185 194 182 171 183 173 181 183 187 186 190 194 193 194 188 184 183 179 179 175 166 163 165 169 169 172 175 170 167 160 162 162
178 180 177 217 159 187 187 196 230 356 311 155 53 230 163 153 157 173 211 238 214 210 199 206 181 192 192 204 165 78 79 86 201 263 308 288 156 164 169 183 175 188 188 192 188 197 201 200 195 203 180 165 182 180 192 183 170 177 166 174 185 183 186 186 195 199 197 193 186 187 185 185 180 173 168 169 171 178 178 173 175 169 159 161 171 172
193 192 190 199 215 193 145 222 326 258 251 249 207 237 225 203 178 182 176 273 279 189 189 186 188 187 193 156 135 153 128 128 235 249 244 244 210 133 62 123 142 158 173 161 158 194 180 188 185 173 169 174 183 190 179 167 171 169 175 184 183 181 187 191 203 201 193 192 190 191 189 186 176 171 172 174 183 183 183 177 163 170 171 171 171 182
40 90 171 198 184 141 206 214 212 224 239 132 197 209 193 116 117 95 68 265 262 191 191 185 200 182 181 168 167 125 136 188 229 206 224 189 201 167 133 155 144 148 156 158 153 150 163 169 165 165 159 156 180 194 171 169 167 169 184 186 183 185 189 202 206 197 197 200 195 186 177 174 175 177 177 183 187 179 176 179 177 168 163 171 170 177
157 175 154 205 206 200 201 205 224 220 236 244 226 244 170 151 122 82 49 266 258 206 194 181 188 180 184 160 148 159 161 205 217 224 203 176 168 182 156 153 131 125 148 149 144 154 149 133 103 112 144 174 200 174 163 160 164 179 184 186 174 183 201 207 206 201 199 187 174 175 173 175 178 180 180 184 174 173 177 158 152 167 167 168 164 166
174 197 198 203 204 200 199 225 341 295 256 229 195 199 174 159 115 156 203 228 231 180 177 183 188 167 146 148 161 175 218 199 192 157 125 133 105 88 62 106 156 158 157 164 167 142 131 151 155 171 187 193 163 152 158 153 164 183 185 170 175 200 209 210 198 183 176 164 162 167 174 174 179 179 181 174 169 161 156 166 167 159 161 163 159 158
223 142 298 181 211 204 206 208 227 267 228 169 349 162 176 120 182 200 227 186 144 161 120 164 150 162 159 167 174 144 141 117 103 105 128 133 130 128 123 129 117 99 76 122 142 135 137 151 162 155 169 173 159 157 155 158 169 185 166 173 198 214 209 161 164 161 153 162 169 170 170 175 172 167 160 151 148 157 167 168 157 163 160 158 162 170
176 165 190 194 180 43 157 207 146 230 212 136 127 81 306 150 233 183 146 16 67 131 122 117 151 162 147 130 121 133 127 124 132 138 142 138 132 153 158 155 155 160 156 139 159 188 149 161 182 196 196 187 169 160 164 158 171 170 174 186 217 202 144 163 149 156 159 160 165 172 171 168 164 159 155 159 164 160 163 160 157 160 158 160 165 172
172 155 194 215 181 181 179 195 209 209 139 177 149 170 191 192 189 153 131 92 345 149 144 119 124 158 153 137 139 138 140 131 122 128 127 134 141 135 144 140 131 147 168 201 169 177 165 176 192 205 216 198 179 169 164 166 172 175 179 216 200 141 155 148 159 150 158 166 168 163 165 161 158 155 157 159 156 159 157 165 164 162 171 170 168 171
214 199 178 183 177 169 200 179 224 245 162 173 84 339 164 159 141 166 132 144 152 211 191 122 143 142 146 134 140 142 142 166 160 168 152 177 166 156 164 187 182 190 191 188 199 180 175 187 201 219 243 233 192 189 178 177 174 181 203 221 151 173 160 158 151 161 165 170 166 162 156 149 157 161 162 164 161 162 166 164 164 167 180 168 174 176
350 137 126 105 206 75 13 134 94 74 164 167 358 232 150 121 114 127 143 124 219 160 167 149 149 142 144 142 130 158 156 168 151 175 161 155 167 195 180 178 208 190 173 166 177 179 183 161 147 181 225 255 232 211 200 197 176 184 220 165 175 169 163 156 159 167 175 162 162 160 153 153 155 160 166 167 178 177 174 170 173 174 170 179 184 183
267 213 90 131 235 139 224 140 158 178 180 181 99 50 32 106 155 146 152 136 150 150 132 151 144 150 150 149 145 153 161 154 155 170 165 163 174 181 182 185 201 179 165 189 207 151 155 169 193 221 220 232 234 212 219 207 222 221 118 167 170 161 161 164 168 168 160 169 160 158 163 166 169 168 169 176 171 171 169 172 174 173 175 180 181 184
270 198 77 198 145 168 242 176 234 307 144 153 174 145 154 132 104 125 156 137 137 142 140 151 128 129 136 139 152 141 156 162 148 168 165 172 178 177 184 185 193 184 233 201 180 168 161 172 199 221 220 236 241 213 217 224 229 231 180 162 152 150 151 167 178 177 178 170 166 168 174 173 168 167 173 182 178 177 178 187 185 185 188 180 181 180
158 131 188 175 133 141 23 321 135 83 51 276 274 262 219 167 135 110 121 128 127 118 113 122 142 155 154 157 144 135 141 185 167 162 160 177 173 178 188 197 189 192 181 166 192 169 178 193 203 215 210 235 216 194 198 213 219 204 179 171 157 158 163 172 169 149 150 157 157 173 174 174 169 178 171 175 188 209 197 183 189 197 209 218 197 194
111 175 186 113 117 188 188 192 161 132 225 229 238 214 195 194 144 131 125 123 132 130 139 128 100 100 142 149 149 141 146 174 182 140 159 172 176 186 195 206 200 180 221 217 163 181 196 194 201 210 219 242 214 199 207 221 218 205 185 165 166 164 171 167 154 152 167 167 171 166 169 173 173 172 176 178 187 189 225 227 212 211 199 204 203 213
158 183 151 169 177 210 181 167 184 152 164 190 193 187 168 170 148 147 162 163 170 157 151 135 131 115 115 127 153 136 149 159 189 163 137 151 198 200 193 172 162 203 240 242 155 229 204 226 210 223 244 247 212 218 223 225 211 192 186 170 172 175 171 157 163 171 170 173 187 180 176 173 174 180 179 185 182 190 194 210 225 220 217 211 209 214